GW6594 Weather Reports


time (UTC)temp
F
wind
direction
speed
knots
gust
knots
rain 1hr
in
rain 24hr
in
rain mn
in
humidity
%
barometer
mb
20260504231558 56 195 4.3 7.8 0.00 0.02 0.02 63 1006.1
20260504230059 58 167 3.5 7.0 0.00 0.02 0.02 60 1006.0
20260504224602 59 179 2.6 7.0 0.00 0.02 0.02 59 1005.8
20260504223058 59 204 4.3 7.8 0.00 0.02 0.02 58 1005.8
20260504221600 60 225 4.3 7.8 0.00 0.02 0.02 58 1005.8
20260504220123 60 240 6.1 10.4 0.00 0.02 0.02 57 1005.7
20260504214600 60 229 6.1 12.2 0.00 0.02 0.02 57 1005.6
20260504213102 61 200 5.2 11.3 0.00 0.02 0.02 57 1005.4
20260504211600 61 208 7.8 12.2 0.00 0.02 0.02 56 1005.5
20260504210059 62 180 6.1 12.2 0.00 0.02 0.02 57 1005.3
20260504204559 62 226 6.1 10.4 0.00 0.02 0.02 57 1005.3
20260504203057 61 222 7.8 10.4 0.00 0.02 0.02 60 1005.2
20260504201559 60 209 7.8 15.6 0.00 0.02 0.02 59 1005.1
20260504194559 59 227 7.8 14.8 0.00 0.04 0.02 64 1005.0
20260504193059 58 273 8.7 13.0 0.00 0.04 0.02 69 1005.2
20260504191600 56 196 7.8 12.2 0.01 0.04 0.02 78 1005.3
20260504190110 51 204 7.0 10.4 0.02 0.04 0.02 86 1005.7
20260504184616 49 229 6.1 12.2 0.02 0.08 0.02 83 1005.9
20260504183107 49 246 9.6 13.9 0.02 0.08 0.02 79 1006.1
20260504181558 51 217 7.8 13.0 0.01 0.07 0.01 76 1006.0
20260504174610 52 224 10.4 20.9 0.00 0.13 0.00 63 1005.4
20260504173104 51 190 9.6 17.4 0.00 0.13 0.00 63 1005.4
20260504171600 52 221 12.2 20.9 0.00 0.13 0.00 61 1005.4
20260504170109 56 222 11.3 18.2 0.00 0.13 0.00 60 1005.1
20260504150103 56 197 7.0 13.0 0.00 0.32 0.00 51 1006.2
20260504120107 47 213 5.2 13.0 0.00 0.62 0.00 61 1007.4
20260504081557 37 241 7.0 10.4 0.00 0.90 0.00 78 1006.5
20260504044604 38 284 7.0 12.2 0.00 1.00 0.00 73 1005.1
20260504043102 38 245 7.0 12.2 0.00 1.00 0.00 72 1005.2
20260504041556 39 252 7.8 12.2 0.00 1.00 0.00 71 1005.1
20260504040104 39 257 7.0 13.0 0.00 1.00 0.00 70 1004.9
20260504034616 39 275 7.8 12.2 0.00 1.00 1.00 69 1004.7
20260504033128 40 258 7.8 13.9 0.00 1.00 1.00 68 1004.5
20260504031604 40 277 7.0 13.0 0.00 1.00 1.00 67 1004.5
20260504030104 40 263 7.8 15.6 0.00 1.00 1.00 66 1004.3
20260504024559 41 271 8.7 18.2 0.00 1.00 1.00 66 1004.2
20260504023105 41 293 9.6 19.1 0.00 1.00 1.00 65 1004.0
20260504021600 41 278 9.6 16.5 0.00 1.00 1.00 66 1003.9
20260504014600 41 290 10.4 18.2 0.00 1.00 1.00 67 1003.6
20260504013110 41 275 9.6 15.6 0.00 1.00 1.00 71 1003.5
20260504011559 41 250 8.7 14.8 0.00 1.00 1.00 78 1003.2
20260504010113 42 292 9.6 17.4 0.00 1.00 1.00 84 1003.0
20260504004624 42 277 6.1 9.6 0.00 1.00 1.00 90 1002.9
20260504003059 42 256 4.3 7.0 0.00 1.00 1.00 89 1002.5
20260504001613 43 290 5.2 8.7 0.00 1.00 1.00 88 1002.3
20260504000110 43 298 5.2 10.4 0.00 1.00 1.00 87 1002.1
20260503234610 43 276 7.0 12.2 0.00 1.00 1.00 87 1001.9
20260503233107 44 292 5.2 12.2 0.00 1.00 1.00 88 1001.7